owner,sensor,date,latitude,longitude,dew_point_temperature,qcFlag 
ADCP,ioos:station:wmo:42365:1,2013-03-01T00:30:00Z,28.2000,-89.1200,4.4,11111222 
ADCP,ioos:station:wmo:42365:1,2013-03-01T01:30:00Z,28.2000,-89.1200,4.3,11111222 
ADCP,ioos:station:wmo:42365:1,2013-03-01T02:30:00Z,28.2000,-89.1200,5.3,11111222 
ADCP,ioos:station:wmo:42365:1,2013-03-01T04:30:00Z,28.2000,-89.1200,2.8,11111222 
ADCP,ioos:station:wmo:42365:1,2013-03-01T05:30:00Z,28.2000,-89.1200,2.0,11111222 
ADCP,ioos:station:wmo:42365:1,2013-03-01T06:30:00Z,28.2000,-89.1200,3.4,11111222 
ADCP,ioos:station:wmo:42365:1,2013-03-01T07:30:00Z,28.2000,-89.1200,1.5,11111222 
ADCP,ioos:station:wmo:42365:1,2013-03-01T08:30:00Z,28.2000,-89.1200,2.1,11111222 
ADCP,ioos:station:wmo:42365:1,2013-03-01T09:30:00Z,28.2000,-89.1200,2.4,11111222 
ADCP,ioos:station:wmo:42365:1,2013-03-01T10:30:00Z,28.2000,-89.1200,1.0,11111222 
ADCP,ioos:station:wmo:42365:1,2013-03-01T11:30:00Z,28.2000,-89.1200,0.6,11111222 
ADCP,ioos:station:wmo:42365:1,2013-03-01T12:30:00Z,28.2000,-89.1200,0.2,11111222 
ADCP,ioos:station:wmo:42365:1,2013-03-01T13:30:00Z,28.2000,-89.1200,1.2,11111222 
ADCP,ioos:station:wmo:42365:1,2013-03-01T14:30:00Z,28.2000,-89.1200,0.6,11111222 
ADCP,ioos:station:wmo:42365:1,2013-03-01T15:30:00Z,28.2000,-89.1200,0.2,11111222 
ADCP,ioos:station:wmo:42365:1,2013-03-01T16:30:00Z,28.2000,-89.1200,1.3,11111222 
ADCP,ioos:station:wmo:42365:1,2013-03-01T17:30:00Z,28.2000,-89.1200,0.7,11111222 
ADCP,ioos:station:wmo:42365:1,2013-03-01T18:30:00Z,28.2000,-89.1200,-0.1,11144222 
ADCP,ioos:station:wmo:42365:1,2013-03-01T19:30:00Z,28.2000,-89.1200,1.0,11111222 
ADCP,ioos:station:wmo:42365:1,2013-03-01T20:30:00Z,28.2000,-89.1200,0.8,11111222 
ADCP,ioos:station:wmo:42365:1,2013-03-01T21:30:00Z,28.2000,-89.1200,0.8,11111222 
ADCP,ioos:station:wmo:42365:1,2013-03-01T22:30:00Z,28.2000,-89.1200,1.2,11111222 
ADCP,ioos:station:wmo:42365:1,2013-03-01T23:30:00Z,28.2000,-89.1200,2.2,11111222 
ADCP,ioos:station:wmo:42365:1,2013-03-02T00:30:00Z,28.2000,-89.1200,2.0,11111222 
ADCP,ioos:station:wmo:42365:1,2013-03-02T01:30:00Z,28.2000,-89.1200,1.8,11111222 
ADCP,ioos:station:wmo:42365:1,2013-03-02T02:30:00Z,28.2000,-89.1200,2.4,11111222 
ADCP,ioos:station:wmo:42365:1,2013-03-02T03:30:00Z,28.2000,-89.1200,-1.2,11144222 
ADCP,ioos:station:wmo:42365:1,2013-03-02T04:30:00Z,28.2000,-89.1200,0.5,11111222 
ADCP,ioos:station:wmo:42365:1,2013-03-02T05:30:00Z,28.2000,-89.1200,-0.6,11144222 
ADCP,ioos:station:wmo:42365:1,2013-03-02T06:30:00Z,28.2000,-89.1200,-1.1,11144222 
ADCP,ioos:station:wmo:42365:1,2013-03-02T07:30:00Z,28.2000,-89.1200,-0.4,11144222 
ADCP,ioos:station:wmo:42365:1,2013-03-02T08:30:00Z,28.2000,-89.1200,2.0,11111222 
ADCP,ioos:station:wmo:42365:1,2013-03-02T09:30:00Z,28.2000,-89.1200,2.2,11111222 
ADCP,ioos:station:wmo:42365:1,2013-03-02T10:30:00Z,28.2000,-89.1200,1.8,11111222 
ADCP,ioos:station:wmo:42365:1,2013-03-02T11:30:00Z,28.2000,-89.1200,2.4,11111222 
ADCP,ioos:station:wmo:42365:1,2013-03-02T12:30:00Z,28.2000,-89.1200,3.4,11111222 
ADCP,ioos:station:wmo:42365:1,2013-03-02T13:30:00Z,28.2000,-89.1200,1.9,11111222 
ADCP,ioos:station:wmo:42365:1,2013-03-02T14:30:00Z,28.2000,-89.1200,2.6,11111222 
ADCP,ioos:station:wmo:42365:1,2013-03-02T15:30:00Z,28.2000,-89.1200,1.8,11111222 
ADCP,ioos:station:wmo:42365:1,2013-03-02T16:30:00Z,28.2000,-89.1200,2.6,11111222 
ADCP,ioos:station:wmo:42365:1,2013-03-02T17:30:00Z,28.2000,-89.1200,2.3,11111222 
ADCP,ioos:station:wmo:42365:1,2013-03-02T18:30:00Z,28.2000,-89.1200,0.8,11111222 
ADCP,ioos:station:wmo:42365:1,2013-03-02T19:30:00Z,28.2000,-89.1200,0.3,11111222 
ADCP,ioos:station:wmo:42365:1,2013-03-02T20:30:00Z,28.2000,-89.1200,1.6,11111222 
ADCP,ioos:station:wmo:42365:1,2013-03-02T21:30:00Z,28.2000,-89.1200,2.8,11111222 
ADCP,ioos:station:wmo:42365:1,2013-03-02T22:30:00Z,28.2000,-89.1200,0.7,11111222 
ADCP,ioos:station:wmo:42365:1,2013-03-02T23:30:00Z,28.2000,-89.1200,0.4,11111222 
ADCP,ioos:station:wmo:42365:1,2013-03-03T00:30:00Z,28.2000,-89.1200,1.0,11111222 
ADCP,ioos:station:wmo:42365:1,2013-03-03T01:30:00Z,28.2000,-89.1200,0.5,11111222 
ADCP,ioos:station:wmo:42365:1,2013-03-03T03:30:00Z,28.2000,-89.1200,1.1,11111222 
ADCP,ioos:station:wmo:42365:1,2013-03-03T04:30:00Z,28.2000,-89.1200,1.9,11111222 
ADCP,ioos:station:wmo:42365:1,2013-03-03T05:30:00Z,28.2000,-89.1200,0.2,11111222 
ADCP,ioos:station:wmo:42365:1,2013-03-03T06:30:00Z,28.2000,-89.1200,-1.2,11144222 
ADCP,ioos:station:wmo:42365:1,2013-03-03T07:30:00Z,28.2000,-89.1200,-1.8,11144222 
ADCP,ioos:station:wmo:42365:1,2013-03-03T08:30:00Z,28.2000,-89.1200,-1.6,11144222 
ADCP,ioos:station:wmo:42365:1,2013-03-03T10:30:00Z,28.2000,-89.1200,-0.2,11144222 
ADCP,ioos:station:wmo:42365:1,2013-03-03T11:30:00Z,28.2000,-89.1200,-0.9,11144222 
ADCP,ioos:station:wmo:42365:1,2013-03-03T12:30:00Z,28.2000,-89.1200,-2.3,11144222 
ADCP,ioos:station:wmo:42365:1,2013-03-03T13:30:00Z,28.2000,-89.1200,-0.4,11144222 
ADCP,ioos:station:wmo:42365:1,2013-03-03T14:30:00Z,28.2000,-89.1200,-0.1,11144222 
ADCP,ioos:station:wmo:42365:1,2013-03-03T15:30:00Z,28.2000,-89.1200,-1.1,11144222 
ADCP,ioos:station:wmo:42365:1,2013-03-03T16:30:00Z,28.2000,-89.1200,-1.5,11144222 
ADCP,ioos:station:wmo:42365:1,2013-03-03T17:30:00Z,28.2000,-89.1200,-1.1,11144222 
ADCP,ioos:station:wmo:42365:1,2013-03-03T18:30:00Z,28.2000,-89.1200,-1.1,11144222 
ADCP,ioos:station:wmo:42365:1,2013-03-03T19:30:00Z,28.2000,-89.1200,-1.5,11144222 
ADCP,ioos:station:wmo:42365:1,2013-03-03T20:30:00Z,28.2000,-89.1200,-1.7,11144222 
ADCP,ioos:station:wmo:42365:1,2013-03-03T21:30:00Z,28.2000,-89.1200,-0.3,11144222 
ADCP,ioos:station:wmo:42365:1,2013-03-03T22:30:00Z,28.2000,-89.1200,1.0,11111222 
ADCP,ioos:station:wmo:42365:1,2013-03-03T23:30:00Z,28.2000,-89.1200,0.3,11111222 
ADCP,ioos:station:wmo:42365:1,2013-03-04T00:30:00Z,28.2000,-89.1200,1.9,11111222 
ADCP,ioos:station:wmo:42365:1,2013-03-04T01:30:00Z,28.2000,-89.1200,2.0,11111222 
ADCP,ioos:station:wmo:42365:1,2013-03-04T02:30:00Z,28.2000,-89.1200,2.0,11111222 
ADCP,ioos:station:wmo:42365:1,2013-03-04T03:30:00Z,28.2000,-89.1200,2.5,11111222 
ADCP,ioos:station:wmo:42365:1,2013-03-04T04:30:00Z,28.2000,-89.1200,2.6,11111222 
ADCP,ioos:station:wmo:42365:1,2013-03-04T05:30:00Z,28.2000,-89.1200,1.9,11111222 
ADCP,ioos:station:wmo:42365:1,2013-03-04T06:30:00Z,28.2000,-89.1200,2.2,11111222 
ADCP,ioos:station:wmo:42365:1,2013-03-04T07:30:00Z,28.2000,-89.1200,3.0,11111222 
ADCP,ioos:station:wmo:42365:1,2013-03-04T08:30:00Z,28.2000,-89.1200,2.9,11111222 
ADCP,ioos:station:wmo:42365:1,2013-03-04T09:30:00Z,28.2000,-89.1200,4.0,11111222 
ADCP,ioos:station:wmo:42365:1,2013-03-04T10:30:00Z,28.2000,-89.1200,4.5,11111222 
ADCP,ioos:station:wmo:42365:1,2013-03-04T11:30:00Z,28.2000,-89.1200,5.5,11111222 
ADCP,ioos:station:wmo:42365:1,2013-03-04T13:30:00Z,28.2000,-89.1200,7.7,11111222 
ADCP,ioos:station:wmo:42365:1,2013-03-04T14:30:00Z,28.2000,-89.1200,7.6,11111222 
ADCP,ioos:station:wmo:42365:1,2013-03-04T15:30:00Z,28.2000,-89.1200,7.7,11111222 
ADCP,ioos:station:wmo:42365:1,2013-03-04T16:30:00Z,28.2000,-89.1200,7.3,11111222 
ADCP,ioos:station:wmo:42365:1,2013-03-04T17:30:00Z,28.2000,-89.1200,8.6,11111222 
ADCP,ioos:station:wmo:42365:1,2013-03-04T18:30:00Z,28.2000,-89.1200,9.9,11111222 
ADCP,ioos:station:wmo:42365:1,2013-03-04T19:30:00Z,28.2000,-89.1200,9.3,11111222 
ADCP,ioos:station:wmo:42365:1,2013-03-04T20:30:00Z,28.2000,-89.1200,9.3,11111222 
ADCP,ioos:station:wmo:42365:1,2013-03-04T21:30:00Z,28.2000,-89.1200,9.6,11111222 
ADCP,ioos:station:wmo:42365:1,2013-03-04T22:30:00Z,28.2000,-89.1200,10.6,11111222 
ADCP,ioos:station:wmo:42365:1,2013-03-04T23:30:00Z,28.2000,-89.1200,10.2,11111222 
ADCP,ioos:station:wmo:42365:1,2013-03-05T00:30:00Z,28.2000,-89.1200,10.1,11111222 
ADCP,ioos:station:wmo:42365:1,2013-03-05T01:30:00Z,28.2000,-89.1200,10.5,11111222 
ADCP,ioos:station:wmo:42365:1,2013-03-05T02:30:00Z,28.2000,-89.1200,11.0,11111222 
ADCP,ioos:station:wmo:42365:1,2013-03-05T03:30:00Z,28.2000,-89.1200,10.5,11111222 
ADCP,ioos:station:wmo:42365:1,2013-03-05T04:30:00Z,28.2000,-89.1200,11.7,11111222 
ADCP,ioos:station:wmo:42365:1,2013-03-05T05:30:00Z,28.2000,-89.1200,12.0,11111222 
ADCP,ioos:station:wmo:42365:1,2013-03-05T06:30:00Z,28.2000,-89.1200,11.8,11111222 
ADCP,ioos:station:wmo:42365:1,2013-03-05T07:30:00Z,28.2000,-89.1200,12.4,11111222 
ADCP,ioos:station:wmo:42365:1,2013-03-05T08:30:00Z,28.2000,-89.1200,13.3,11111222 
ADCP,ioos:station:wmo:42365:1,2013-03-05T09:30:00Z,28.2000,-89.1200,13.1,11111222 
ADCP,ioos:station:wmo:42365:1,2013-03-05T10:30:00Z,28.2000,-89.1200,13.3,11111222 
ADCP,ioos:station:wmo:42365:1,2013-03-05T11:30:00Z,28.2000,-89.1200,14.0,11111222 
ADCP,ioos:station:wmo:42365:1,2013-03-05T12:30:00Z,28.2000,-89.1200,14.0,11111222 
ADCP,ioos:station:wmo:42365:1,2013-03-05T13:30:00Z,28.2000,-89.1200,14.4,11111222 
ADCP,ioos:station:wmo:42365:1,2013-03-05T14:30:00Z,28.2000,-89.1200,14.2,11111222 
ADCP,ioos:station:wmo:42365:1,2013-03-05T15:30:00Z,28.2000,-89.1200,15.0,11111222 
ADCP,ioos:station:wmo:42365:1,2013-03-05T16:30:00Z,28.2000,-89.1200,15.3,11111222 
ADCP,ioos:station:wmo:42365:1,2013-03-05T17:30:00Z,28.2000,-89.1200,16.2,11111222 
ADCP,ioos:station:wmo:42365:1,2013-03-05T18:30:00Z,28.2000,-89.1200,16.2,11111222 
ADCP,ioos:station:wmo:42365:1,2013-03-05T19:30:00Z,28.2000,-89.1200,16.1,11111222 
ADCP,ioos:station:wmo:42365:1,2013-03-05T20:30:00Z,28.2000,-89.1200,16.1,11111222 
ADCP,ioos:station:wmo:42365:1,2013-03-05T21:30:00Z,28.2000,-89.1200,16.3,11111222 
ADCP,ioos:station:wmo:42365:1,2013-03-05T22:30:00Z,28.2000,-89.1200,16.2,11111222 
ADCP,ioos:station:wmo:42365:1,2013-03-05T23:30:00Z,28.2000,-89.1200,16.3,11111222 
ADCP,ioos:station:wmo:42365:1,2013-03-06T00:30:00Z,28.2000,-89.1200,16.0,11111222 
ADCP,ioos:station:wmo:42365:1,2013-03-06T01:30:00Z,28.2000,-89.1200,16.1,11111222 
ADCP,ioos:station:wmo:42365:1,2013-03-06T02:30:00Z,28.2000,-89.1200,17.0,11111222 
ADCP,ioos:station:wmo:42365:1,2013-03-06T03:30:00Z,28.2000,-89.1200,16.2,11111222 
ADCP,ioos:station:wmo:42365:1,2013-03-06T04:30:00Z,28.2000,-89.1200,13.4,11111222 
ADCP,ioos:station:wmo:42365:1,2013-03-06T05:30:00Z,28.2000,-89.1200,11.5,11111222 
ADCP,ioos:station:wmo:42365:1,2013-03-06T06:30:00Z,28.2000,-89.1200,8.0,11111222 
ADCP,ioos:station:wmo:42365:1,2013-03-06T07:30:00Z,28.2000,-89.1200,8.0,11111222 
ADCP,ioos:station:wmo:42365:1,2013-03-06T08:30:00Z,28.2000,-89.1200,5.0,11111222 
ADCP,ioos:station:wmo:42365:1,2013-03-06T09:30:00Z,28.2000,-89.1200,4.1,11111222 
ADCP,ioos:station:wmo:42365:1,2013-03-06T10:30:00Z,28.2000,-89.1200,4.4,11111222 
ADCP,ioos:station:wmo:42365:1,2013-03-06T11:30:00Z,28.2000,-89.1200,5.3,11111222 
ADCP,ioos:station:wmo:42365:1,2013-03-06T12:30:00Z,28.2000,-89.1200,4.9,11111222 
ADCP,ioos:station:wmo:42365:1,2013-03-06T13:30:00Z,28.2000,-89.1200,5.0,11111222 
ADCP,ioos:station:wmo:42365:1,2013-03-06T14:30:00Z,28.2000,-89.1200,4.3,11111222 
ADCP,ioos:station:wmo:42365:1,2013-03-06T16:30:00Z,28.2000,-89.1200,3.6,11111222 
ADCP,ioos:station:wmo:42365:1,2013-03-06T17:30:00Z,28.2000,-89.1200,3.5,11111222 
ADCP,ioos:station:wmo:42365:1,2013-03-06T18:30:00Z,28.2000,-89.1200,4.0,11111222 
ADCP,ioos:station:wmo:42365:1,2013-03-06T19:30:00Z,28.2000,-89.1200,3.1,11111222 
ADCP,ioos:station:wmo:42365:1,2013-03-06T20:30:00Z,28.2000,-89.1200,3.2,11111222 
ADCP,ioos:station:wmo:42365:1,2013-03-06T21:30:00Z,28.2000,-89.1200,3.0,11111222 
ADCP,ioos:station:wmo:42365:1,2013-03-06T22:30:00Z,28.2000,-89.1200,1.9,11111222 
ADCP,ioos:station:wmo:42365:1,2013-03-06T23:30:00Z,28.2000,-89.1200,2.4,11111222 
ADCP,ioos:station:wmo:42365:1,2013-03-07T00:30:00Z,28.2000,-89.1200,3.3,11111222 
ADCP,ioos:station:wmo:42365:1,2013-03-07T01:30:00Z,28.2000,-89.1200,4.3,11111222 
ADCP,ioos:station:wmo:42365:1,2013-03-07T02:30:00Z,28.2000,-89.1200,1.4,11111222 
ADCP,ioos:station:wmo:42365:1,2013-03-07T03:30:00Z,28.2000,-89.1200,0.6,11111222 
ADCP,ioos:station:wmo:42365:1,2013-03-07T04:30:00Z,28.2000,-89.1200,0.4,11111222 
ADCP,ioos:station:wmo:42365:1,2013-03-07T05:30:00Z,28.2000,-89.1200,0.5,11111222 
ADCP,ioos:station:wmo:42365:1,2013-03-07T06:30:00Z,28.2000,-89.1200,0.9,11111222 
ADCP,ioos:station:wmo:42365:1,2013-03-07T07:30:00Z,28.2000,-89.1200,2.2,11111222 
ADCP,ioos:station:wmo:42365:1,2013-03-07T08:30:00Z,28.2000,-89.1200,3.6,11111222 
ADCP,ioos:station:wmo:42365:1,2013-03-07T09:30:00Z,28.2000,-89.1200,4.3,11111222 
ADCP,ioos:station:wmo:42365:1,2013-03-07T10:30:00Z,28.2000,-89.1200,5.7,11111222 
ADCP,ioos:station:wmo:42365:1,2013-03-07T11:30:00Z,28.2000,-89.1200,6.1,11111222 
ADCP,ioos:station:wmo:42365:1,2013-03-07T12:30:00Z,28.2000,-89.1200,5.6,11111222 
ADCP,ioos:station:wmo:42365:1,2013-03-07T13:30:00Z,28.2000,-89.1200,6.1,11111222 
ADCP,ioos:station:wmo:42365:1,2013-03-07T14:30:00Z,28.2000,-89.1200,6.1,11111222 
ADCP,ioos:station:wmo:42365:1,2013-03-07T16:30:00Z,28.2000,-89.1200,6.2,11111222 
ADCP,ioos:station:wmo:42365:1,2013-03-07T17:30:00Z,28.2000,-89.1200,6.3,11111222 
ADCP,ioos:station:wmo:42365:1,2013-03-07T18:30:00Z,28.2000,-89.1200,6.6,11111222 
ADCP,ioos:station:wmo:42365:1,2013-03-07T19:30:00Z,28.2000,-89.1200,6.8,11111222 
ADCP,ioos:station:wmo:42365:1,2013-03-07T20:30:00Z,28.2000,-89.1200,6.9,11111222 
ADCP,ioos:station:wmo:42365:1,2013-03-07T21:30:00Z,28.2000,-89.1200,6.4,11111222 
ADCP,ioos:station:wmo:42365:1,2013-03-07T22:30:00Z,28.2000,-89.1200,6.7,11111222 
ADCP,ioos:station:wmo:42365:1,2013-03-07T23:30:00Z,28.2000,-89.1200,7.1,11111222 
ADCP,ioos:station:wmo:42365:1,2013-03-08T00:30:00Z,28.2000,-89.1200,6.8,11111222 
ADCP,ioos:station:wmo:42365:1,2013-03-08T01:30:00Z,28.2000,-89.1200,7.2,11111222 
ADCP,ioos:station:wmo:42365:1,2013-03-08T02:30:00Z,28.2000,-89.1200,8.2,11111222 
ADCP,ioos:station:wmo:42365:1,2013-03-08T03:30:00Z,28.2000,-89.1200,7.4,11111222 
ADCP,ioos:station:wmo:42365:1,2013-03-08T04:30:00Z,28.2000,-89.1200,7.5,11111222 
ADCP,ioos:station:wmo:42365:1,2013-03-08T05:30:00Z,28.2000,-89.1200,7.7,11111222 
ADCP,ioos:station:wmo:42365:1,2013-03-08T06:30:00Z,28.2000,-89.1200,8.0,11111222 
ADCP,ioos:station:wmo:42365:1,2013-03-08T07:30:00Z,28.2000,-89.1200,7.7,11111222 
ADCP,ioos:station:wmo:42365:1,2013-03-08T08:30:00Z,28.2000,-89.1200,8.3,11111222 
ADCP,ioos:station:wmo:42365:1,2013-03-08T09:30:00Z,28.2000,-89.1200,9.1,11111222 
ADCP,ioos:station:wmo:42365:1,2013-03-08T10:30:00Z,28.2000,-89.1200,9.4,11111222 
ADCP,ioos:station:wmo:42365:1,2013-03-08T11:30:00Z,28.2000,-89.1200,9.6,11111222 
ADCP,ioos:station:wmo:42365:1,2013-03-08T12:30:00Z,28.2000,-89.1200,9.5,11111222 
ADCP,ioos:station:wmo:42365:1,2013-03-08T13:30:00Z,28.2000,-89.1200,8.5,11111222 
ADCP,ioos:station:wmo:42365:1,2013-03-08T14:30:00Z,28.2000,-89.1200,7.7,11111222 
ADCP,ioos:station:wmo:42365:1,2013-03-08T15:30:00Z,28.2000,-89.1200,7.7,11111222 
ADCP,ioos:station:wmo:42365:1,2013-03-08T16:30:00Z,28.2000,-89.1200,7.5,11111222 
ADCP,ioos:station:wmo:42365:1,2013-03-08T17:30:00Z,28.2000,-89.1200,8.6,11111222 
ADCP,ioos:station:wmo:42365:1,2013-03-08T18:30:00Z,28.2000,-89.1200,8.4,11111222 
ADCP,ioos:station:wmo:42365:1,2013-03-08T19:30:00Z,28.2000,-89.1200,9.7,11111222 
ADCP,ioos:station:wmo:42365:1,2013-03-08T20:30:00Z,28.2000,-89.1200,9.8,11111222 
ADCP,ioos:station:wmo:42365:1,2013-03-08T21:30:00Z,28.2000,-89.1200,10.1,11111222 
ADCP,ioos:station:wmo:42365:1,2013-03-08T22:30:00Z,28.2000,-89.1200,9.7,11111222 
ADCP,ioos:station:wmo:42365:1,2013-03-08T23:30:00Z,28.2000,-89.1200,10.1,11111222 
ADCP,ioos:station:wmo:42365:1,2013-03-09T00:30:00Z,28.2000,-89.1200,10.5,11111222 
ADCP,ioos:station:wmo:42365:1,2013-03-09T01:30:00Z,28.2000,-89.1200,10.7,11111222 
ADCP,ioos:station:wmo:42365:1,2013-03-09T02:30:00Z,28.2000,-89.1200,10.1,11111222 
ADCP,ioos:station:wmo:42365:1,2013-03-09T03:30:00Z,28.2000,-89.1200,10.5,11111222 
ADCP,ioos:station:wmo:42365:1,2013-03-09T04:30:00Z,28.2000,-89.1200,11.1,11111222 
ADCP,ioos:station:wmo:42365:1,2013-03-09T05:30:00Z,28.2000,-89.1200,11.2,11111222 
ADCP,ioos:station:wmo:42365:1,2013-03-09T06:30:00Z,28.2000,-89.1200,11.3,11111222 
ADCP,ioos:station:wmo:42365:1,2013-03-09T07:30:00Z,28.2000,-89.1200,11.2,11111222 
ADCP,ioos:station:wmo:42365:1,2013-03-09T08:30:00Z,28.2000,-89.1200,11.5,11111222 
ADCP,ioos:station:wmo:42365:1,2013-03-09T09:30:00Z,28.2000,-89.1200,11.6,11111222 
ADCP,ioos:station:wmo:42365:1,2013-03-09T10:30:00Z,28.2000,-89.1200,12.5,11111222 
ADCP,ioos:station:wmo:42365:1,2013-03-09T11:30:00Z,28.2000,-89.1200,12.8,11111222 
ADCP,ioos:station:wmo:42365:1,2013-03-09T12:30:00Z,28.2000,-89.1200,13.1,11111222 
ADCP,ioos:station:wmo:42365:1,2013-03-09T13:30:00Z,28.2000,-89.1200,13.2,11111222 
ADCP,ioos:station:wmo:42365:1,2013-03-09T14:30:00Z,28.2000,-89.1200,13.4,11111222 
ADCP,ioos:station:wmo:42365:1,2013-03-09T15:30:00Z,28.2000,-89.1200,13.7,11111222 
ADCP,ioos:station:wmo:42365:1,2013-03-09T16:30:00Z,28.2000,-89.1200,13.6,11111222 
ADCP,ioos:station:wmo:42365:1,2013-03-09T17:30:00Z,28.2000,-89.1200,14.3,11111222 
ADCP,ioos:station:wmo:42365:1,2013-03-09T18:30:00Z,28.2000,-89.1200,13.6,11111222 
ADCP,ioos:station:wmo:42365:1,2013-03-09T19:30:00Z,28.2000,-89.1200,14.0,11111222 
ADCP,ioos:station:wmo:42365:1,2013-03-09T20:30:00Z,28.2000,-89.1200,14.3,11111222 
ADCP,ioos:station:wmo:42365:1,2013-03-09T21:30:00Z,28.2000,-89.1200,14.5,11111222 
ADCP,ioos:station:wmo:42365:1,2013-03-09T22:30:00Z,28.2000,-89.1200,14.2,11111222 
ADCP,ioos:station:wmo:42365:1,2013-03-09T23:30:00Z,28.2000,-89.1200,13.5,11111222 
ADCP,ioos:station:wmo:42365:1,2013-03-10T00:30:00Z,28.2000,-89.1200,14.7,11111222 
ADCP,ioos:station:wmo:42365:1,2013-03-10T01:30:00Z,28.2000,-89.1200,14.2,11111222 
ADCP,ioos:station:wmo:42365:1,2013-03-10T02:30:00Z,28.2000,-89.1200,14.7,11111222 
ADCP,ioos:station:wmo:42365:1,2013-03-10T03:30:00Z,28.2000,-89.1200,14.2,11111222 
ADCP,ioos:station:wmo:42365:1,2013-03-10T04:30:00Z,28.2000,-89.1200,14.8,11111222 
ADCP,ioos:station:wmo:42365:1,2013-03-10T05:30:00Z,28.2000,-89.1200,15.1,11111222 
ADCP,ioos:station:wmo:42365:1,2013-03-10T07:30:00Z,28.2000,-89.1200,15.7,11111222 
ADCP,ioos:station:wmo:42365:1,2013-03-10T08:30:00Z,28.2000,-89.1200,15.1,11111222 
ADCP,ioos:station:wmo:42365:1,2013-03-10T09:30:00Z,28.2000,-89.1200,15.4,11111222 
ADCP,ioos:station:wmo:42365:1,2013-03-10T10:30:00Z,28.2000,-89.1200,14.9,11111222 
ADCP,ioos:station:wmo:42365:1,2013-03-10T11:30:00Z,28.2000,-89.1200,14.8,11111222 
ADCP,ioos:station:wmo:42365:1,2013-03-10T12:30:00Z,28.2000,-89.1200,14.9,11111222 
ADCP,ioos:station:wmo:42365:1,2013-03-10T13:30:00Z,28.2000,-89.1200,14.3,11111222 
ADCP,ioos:station:wmo:42365:1,2013-03-10T14:30:00Z,28.2000,-89.1200,15.3,11111222 
ADCP,ioos:station:wmo:42365:1,2013-03-10T15:30:00Z,28.2000,-89.1200,16.2,11111222 
ADCP,ioos:station:wmo:42365:1,2013-03-10T16:30:00Z,28.2000,-89.1200,16.3,11111222 
ADCP,ioos:station:wmo:42365:1,2013-03-10T17:30:00Z,28.2000,-89.1200,16.8,11111222 
ADCP,ioos:station:wmo:42365:1,2013-03-10T18:30:00Z,28.2000,-89.1200,17.5,11111222 
ADCP,ioos:station:wmo:42365:1,2013-03-10T19:30:00Z,28.2000,-89.1200,18.1,11111222 
ADCP,ioos:station:wmo:42365:1,2013-03-10T20:30:00Z,28.2000,-89.1200,18.5,11111222 
ADCP,ioos:station:wmo:42365:1,2013-03-10T21:30:00Z,28.2000,-89.1200,18.7,11111222 
ADCP,ioos:station:wmo:42365:1,2013-03-10T22:30:00Z,28.2000,-89.1200,19.0,11111222 
ADCP,ioos:station:wmo:42365:1,2013-03-10T23:30:00Z,28.2000,-89.1200,19.0,11111222 
ADCP,ioos:station:wmo:42365:1,2013-03-11T00:30:00Z,28.2000,-89.1200,18.7,11111222 
ADCP,ioos:station:wmo:42365:1,2013-03-11T01:30:00Z,28.2000,-89.1200,18.8,11111222 
ADCP,ioos:station:wmo:42365:1,2013-03-11T02:30:00Z,28.2000,-89.1200,18.9,11111222 
ADCP,ioos:station:wmo:42365:1,2013-03-11T03:30:00Z,28.2000,-89.1200,19.0,11111222 
ADCP,ioos:station:wmo:42365:1,2013-03-11T05:30:00Z,28.2000,-89.1200,18.7,11111222 
ADCP,ioos:station:wmo:42365:1,2013-03-11T07:30:00Z,28.2000,-89.1200,18.4,11111222 
ADCP,ioos:station:wmo:42365:1,2013-03-11T08:30:00Z,28.2000,-89.1200,17.7,11111222 
ADCP,ioos:station:wmo:42365:1,2013-03-11T09:30:00Z,28.2000,-89.1200,18.1,11111222 
ADCP,ioos:station:wmo:42365:1,2013-03-11T10:30:00Z,28.2000,-89.1200,18.5,11111222 
ADCP,ioos:station:wmo:42365:1,2013-03-11T11:30:00Z,28.2000,-89.1200,18.9,11111222 
ADCP,ioos:station:wmo:42365:1,2013-03-11T12:30:00Z,28.2000,-89.1200,19.4,11111222 
ADCP,ioos:station:wmo:42365:1,2013-03-11T14:30:00Z,28.2000,-89.1200,19.4,11111222 
ADCP,ioos:station:wmo:42365:1,2013-03-11T15:30:00Z,28.2000,-89.1200,14.1,11111222 
ADCP,ioos:station:wmo:42365:1,2013-03-11T20:30:00Z,28.2000,-89.1200,9.5,11111222 
ADCP,ioos:station:wmo:42365:1,2013-03-11T21:30:00Z,28.2000,-89.1200,9.0,11111222 
ADCP,ioos:station:wmo:42365:1,2013-03-11T22:30:00Z,28.2000,-89.1200,8.1,11111222 
ADCP,ioos:station:wmo:42365:1,2013-03-11T23:30:00Z,28.2000,-89.1200,7.1,11111222 
ADCP,ioos:station:wmo:42365:1,2013-03-12T00:30:00Z,28.2000,-89.1200,6.8,11111222 
ADCP,ioos:station:wmo:42365:1,2013-03-12T01:30:00Z,28.2000,-89.1200,7.8,11111222 
ADCP,ioos:station:wmo:42365:1,2013-03-12T02:30:00Z,28.2000,-89.1200,6.7,11111222 
ADCP,ioos:station:wmo:42365:1,2013-03-12T03:30:00Z,28.2000,-89.1200,6.3,11111222 
ADCP,ioos:station:wmo:42365:1,2013-03-12T04:30:00Z,28.2000,-89.1200,6.4,11111222 
ADCP,ioos:station:wmo:42365:1,2013-03-12T05:30:00Z,28.2000,-89.1200,6.6,11111222 
ADCP,ioos:station:wmo:42365:1,2013-03-12T06:30:00Z,28.2000,-89.1200,5.9,11111222 
ADCP,ioos:station:wmo:42365:1,2013-03-12T07:30:00Z,28.2000,-89.1200,6.1,11111222 
ADCP,ioos:station:wmo:42365:1,2013-03-12T08:30:00Z,28.2000,-89.1200,6.4,11111222 
ADCP,ioos:station:wmo:42365:1,2013-03-12T09:30:00Z,28.2000,-89.1200,7.1,11111222 
ADCP,ioos:station:wmo:42365:1,2013-03-12T10:30:00Z,28.2000,-89.1200,7.0,11111222 
ADCP,ioos:station:wmo:42365:1,2013-03-12T11:30:00Z,28.2000,-89.1200,6.9,11111222 
ADCP,ioos:station:wmo:42365:1,2013-03-12T12:30:00Z,28.2000,-89.1200,6.5,11111222 
ADCP,ioos:station:wmo:42365:1,2013-03-12T13:30:00Z,28.2000,-89.1200,6.4,11111222 
ADCP,ioos:station:wmo:42365:1,2013-03-12T14:30:00Z,28.2000,-89.1200,5.8,11111222 
ADCP,ioos:station:wmo:42365:1,2013-03-12T15:30:00Z,28.2000,-89.1200,5.5,11111222 
ADCP,ioos:station:wmo:42365:1,2013-03-12T16:30:00Z,28.2000,-89.1200,5.9,11111222 
ADCP,ioos:station:wmo:42365:1,2013-03-12T17:30:00Z,28.2000,-89.1200,5.6,11111222 
ADCP,ioos:station:wmo:42365:1,2013-03-12T18:30:00Z,28.2000,-89.1200,5.6,11111222 
ADCP,ioos:station:wmo:42365:1,2013-03-12T19:30:00Z,28.2000,-89.1200,6.3,11111222 
ADCP,ioos:station:wmo:42365:1,2013-03-12T21:30:00Z,28.2000,-89.1200,4.9,11111222 
ADCP,ioos:station:wmo:42365:1,2013-03-12T22:30:00Z,28.2000,-89.1200,4.3,11111222 
ADCP,ioos:station:wmo:42365:1,2013-03-12T23:30:00Z,28.2000,-89.1200,4.7,11111222 
ADCP,ioos:station:wmo:42365:1,2013-03-13T00:30:00Z,28.2000,-89.1200,4.0,11111222 
ADCP,ioos:station:wmo:42365:1,2013-03-13T01:30:00Z,28.2000,-89.1200,5.4,11111222 
ADCP,ioos:station:wmo:42365:1,2013-03-13T02:30:00Z,28.2000,-89.1200,5.5,11111222 
ADCP,ioos:station:wmo:42365:1,2013-03-13T03:30:00Z,28.2000,-89.1200,5.3,11111222 
ADCP,ioos:station:wmo:42365:1,2013-03-13T04:30:00Z,28.2000,-89.1200,5.7,11111222 
ADCP,ioos:station:wmo:42365:1,2013-03-13T05:30:00Z,28.2000,-89.1200,5.6,11111222 
ADCP,ioos:station:wmo:42365:1,2013-03-13T06:30:00Z,28.2000,-89.1200,6.5,11111222 
ADCP,ioos:station:wmo:42365:1,2013-03-13T07:30:00Z,28.2000,-89.1200,7.1,11111222 
ADCP,ioos:station:wmo:42365:1,2013-03-13T08:30:00Z,28.2000,-89.1200,6.0,11111222 
ADCP,ioos:station:wmo:42365:1,2013-03-13T09:30:00Z,28.2000,-89.1200,6.3,11111222 
ADCP,ioos:station:wmo:42365:1,2013-03-13T11:30:00Z,28.2000,-89.1200,6.2,11111222 
ADCP,ioos:station:wmo:42365:1,2013-03-13T12:30:00Z,28.2000,-89.1200,6.5,11111222 
ADCP,ioos:station:wmo:42365:1,2013-03-13T13:30:00Z,28.2000,-89.1200,5.9,11111222 
ADCP,ioos:station:wmo:42365:1,2013-03-13T14:30:00Z,28.2000,-89.1200,6.5,11111222 
ADCP,ioos:station:wmo:42365:1,2013-03-13T15:30:00Z,28.2000,-89.1200,6.1,11111222 
ADCP,ioos:station:wmo:42365:1,2013-03-13T16:30:00Z,28.2000,-89.1200,5.5,11111222 
ADCP,ioos:station:wmo:42365:1,2013-03-13T17:30:00Z,28.2000,-89.1200,5.1,11111222 